Probability
0 0 0 0 0 0 0 0 0 0 0 0 0 0 0 0 0 0 0 0 0 0 0 0 0 0 0 0 0 0 0 0 0 0 0 0 0 0 0 0 0 0 0 0
0 0 0 0 0 0 0 0 0 0 0 0 0 0 0 0 0 0 0 0 0 0 0 0 0 0 0 0 0 0 0 0 0 0 0 0 0 0 0 0 0 0 0 0
0 0 0 0 0 0 0 0 0 0 0 0 0 0 0 0 0 0 0 0 0 0 0 0 0 0 0 0 0 0 0 0 0 0 0 0 0 0 0 0 0 0 0 0
0 0 0 0 0 0 0 0 0 0 0 0 0 0 0 0 0 0 0 0 0 0 0 0 0 0 0 0 0 0 0 0 0 0 0 0 0 0 0 0 0 0 0 0
0 0 0 0 0 0 0 0 0 0 0 0 0 0 0 0 0 0 0 0 0 0 0 0 0 0 0 0 0 0 0 0 0 0 0 0 0 0 0 0 0 0 0 0
0 0 0 0 0 0 0 0 0 0 0 0 0 0 0 0 0 0 0 0 0 0 0 0 0 0 0 0 0 0 0 0 0 0 0 0 0 0 0 0 0 0 0 0
0 0 0 0 0 0 0 0 0 0 0 0 0 0 0 0 0 0 0 0 0 0 0 0 0 0 0 0 0 0 0 0 0 0 0 0 0 0 0 0 0 0 0 0
0 0 0 0 0 0 0 0 0 0 0 0 0 0 0 0 0 0 0 0 0 0 0 0 0 0 0 0 0 0 0 0 0 0 0 0 0 0 0 0 0 0 0 0
0 0 0 0 0 0 0 0 0 0 0 0 0 0 0 0 0 0 0 0 0 0 0 0 0 0 0 0 0 0 0 0 0 0 0 0 0 0 0 0 0 0 0 0
0 0 0 0 0 0 0 0 0 0 0 0 0 0 0 0 0 0 0 0 0 0 0 0 0 0 0 0 0 0 0 0 0 0 0 0 0 0 0 0 0 0 0 0
0 0 0 0 0 0 0 0 0 0 0 0 0 0 0 0 0 0 0 0 0 0 0 0 0 0 0 0 0 0 0 0 0 0 0 0 0 0 0 0 0 0 0 0
0 0 0 0 0 0 0 0 0 0 0 0 0 0 0 0 0 0 0 0 0 0 0 0 0 0 0 0 0 0 0 0 0 0 0 0 0 0 0 0 0 0 0 0
0 0 0 0 0 0 0 0 0 0 0 0 0 0 0 0 0 0 0 0 0 0 0 0 0 0 0 0 0 0 0 0 0 0 0 0 0 0 0 0 0 0 0 0
0 0 0 0 0 0 0 0 0 0 0 0 0 0 0 0 0 0 0 0 0 0 0 0 0 0 0 0 0 0 0 0 0 0 0 0 0 0 0 0 0 0 0 0
0 0 0 0 0 0 0 0 0 0 0 0 0 0 0 0 0 0 0 0 0 0 0 0 0 0 0 0 0 0 0 0 0 0 0 0 0 0 0 0 0 0 0 0
0 0 0 0 0 0 0 0 0 0 0 0 0 0 0 0 0 0 0 0 0 0 0 0 0 0 0 0 0 0 0 0 0 0 0 0 0 0 0 0 0 0 0 0
0 0 0 0 0 0 0 0 0 0 0 0 0 0 0 0 0 0 0 0 0 0 0 0 0 0 0 0 0 0 0 0 0 0 0 0 0 0 0 0 0 0 0 0
0 0 0 0 0 0 0 0 0 0 0 0 0 0 0 0 0 0 0 0 0 0 0 0 0 0 0 0 0 0 0 0 0 0 0 0 0 0 0 0 0 0 0 0
0 0 0 0 0 0 0 0 0 0 0 0 0 0 0 0 0 0 0 0 0 0 0 0 0 0 0 0 0 0 0 0 0 0 0 0 0 0 0 0 0 0 0 0
0 0 0 0 0 0 0 0 0 0 0 0 0 0 0 0 0 0 0 0 0 0 0 0 0 0 0 0 0 0 0 0 0 0 0 0 0 0 0 0 0 0 0 0
0 0 0 0 0 0 0 0 0 0 0 0 0 0 0 0 0 0 0 0 0 0 0 0 0 0 0 0 0 0 0 0 0 0 0 0 0 0 0 0 0 0 0 0
0 0 0 0 0 0 0 0 0 0 0 0 0 0 0 0 0 0 0 0 0 0 0 0 0 0 0 0 0 0 0 0 0 0 0 0 0 0 0 0 0 0 0 0
0 0 0 0 0 0 0 0 0 0 0 0 0 0 0 0 0 0 0 0 0 0 0 0 0 0 0 0 0 0 0 0 0 0 0 0 0 0 0 0 0 0 0 0
0 0 0 0 0 0 0 0 0 0 0 0 0 0 0 0 0 0 0 0 0 0 0 0 0 0 0 0 0 0 0 0 0 0 0 0 0 0 0 0 0 0 0 0
0 0 0 0 0 0 0 0 0 0 0 0 0 0 0 0 0 0 0 0 0 0 0 0 0 0 0 0 0 0 0 0 0 0 0 0 0 0 0 0 0 0 0 0
0 0 0 0 0 0 0 0 0 0 0 0 0 0 0 0 0 0 0 0 0 0 0 0 0 0 0 0 0 0 0 0 0 0 0 0 0 0 0 0 0 0 0 0
0 0 0 0 0 0 0 0 0 0 0 0 0 0 0 0 0 0 0 0 0 0 0 0 0 0 0 0 0 0 0 0 0 0 0 0 0 0 0 0 0 0 0 0
Wind_Speed
1 2 4 5 9 13 12 9 7 5 5 7 6 7 7 6 4 3 2 3 4 5 6 6 7 7 7 8 8 8 8 9 9 9 9 10 10 10 10 11 11 10 11 10
2 3 4 6 10 13 14 14 13 11 11 10 8 5 6 6 5 3 1 1 3 4 5 6 6 7 7 7 7 7 8 9 8 9 9 10 10 10 11 11 11 11 11 10
3 2 3 9 12 16 11 11 11 14 11 7 7 8 8 6 4 2 1 0 2 3 4 5 5 6 6 6 6 7 8 8 8 8 9 9 9 10 11 10 11 11 11 11
2 3 8 1 2 8 13 12 13 11 11 10 9 9 6 4 3 2 2 2 1 2 3 4 4 5 5 6 6 7 8 8 8 8 8 9 9 10 10 9 10 10 11 11
3 4 7 4 4 7 8 7 11 15 14 11 7 5 3 3 2 3 3 2 2 2 2 3 4 4 5 6 6 7 8 7 7 7 8 8 9 9 8 9 10 9 9 10
4 5 5 1 3 5 5 4 3 7 7 6 3 4 1 6 5 4 4 3 3 3 3 4 4 4 5 6 7 7 7 7 7 7 8 8 8 8 8 8 8 8 9 8
6 6 7 2 4 6 5 3 3 3 4 3 4 3 3 7 5 5 5 4 4 4 4 4 4 5 6 6 6 5 6 6 7 7 7 7 7 7 7 7 7 7 7 7
7 8 7 4 7 6 0 2 1 3 3 3 3 2 5 6 7 7 6 5 5 5 4 4 4 5 6 5 4 5 6 6 7 7 6 6 7 6 6 6 6 6 5 5
7 6 1 3 4 1 0 2 3 3 3 3 3 4 6 7 8 8 7 7 6 6 5 4 4 5 6 5 5 5 6 7 6 7 6 5 5 5 4 4 3 3 3 3
6 7 6 6 5 4 3 3 3 4 3 4 5 5 7 8 8 8 8 8 7 7 7 6 5 5 6 6 5 6 7 6 5 6 6 5 4 4 3 3 2 2 2 2
8 5 4 4 4 2 2 2 2 3 3 5 5 6 8 8 9 9 8 8 8 8 7 7 6 6 6 6 6 7 6 5 5 5 5 5 4 4 3 3 3 2 1 1
6 4 4 3 2 1 1 2 3 3 3 4 6 7 8 8 9 9 9 9 8 8 8 8 7 7 6 6 6 7 6 5 4 3 3 3 3 4 5 4 5 4 2 1
2 1 2 1 0 1 3 4 4 4 5 5 5 6 8 7 8 9 9 10 10 10 9 9 8 7 7 6 6 6 5 5 4 3 3 2 2 2 2 2 3 4 4 3
2 2 3 2 1 4 5 5 4 4 4 4 4 5 7 7 9 10 10 10 9 9 9 9 8 8 7 7 6 6 5 5 4 3 3 2 2 1 1 2 2 1 1 3
3 1 3 3 4 4 4 4 4 4 4 4 4 6 8 9 10 10 9 9 9 9 9 9 9 8 7 7 7 7 5 4 4 3 3 2 2 2 2 2 2 2 2 2
2 2 3 3 4 4 4 5 6 6 5 5 6 7 8 8 8 8 9 10 11 11 11 10 9 9 8 8 7 6 5 6 5 4 3 3 3 2 2 2 3 3 3 3
2 2 2 3 4 6 6 7 7 7 7 7 7 6 7 7 8 8 9 9 8 8 9 9 9 9 9 8 8 5 5 6 8 4 3 3 3 3 3 3 3 4 4 4
2 2 3 5 7 8 8 8 7 8 7 7 5 6 8 10 10 9 9 8 7 6 7 8 8 9 9 9 7 5 5 5 5 4 3 3 3 3 3 3 4 4 4 4
1 2 4 5 6 7 8 8 8 7 6 5 6 8 8 8 8 8 9 9 10 9 8 8 12 11 9 10 8 5 6 5 5 4 3 4 4 3 3 3 4 4 4 4
1 2 3 4 5 5 6 7 7 5 4 3 5 6 6 6 7 8 9 9 7 5 7 10 11 9 9 10 10 5 6 6 5 4 4 4 3 3 3 4 4 4 5 5
3 3 4 5 5 5 5 6 5 4 3 2 4 5 5 5 6 7 8 7 5 6 8 13 9 8 8 9 11 6 6 6 5 5 4 4 3 3 4 4 4 4 5 5
3 3 4 5 5 5 5 5 5 4 3 1 1 2 3 5 6 6 6 4 6 10 8 8 7 10 11 12 7 6 6 6 5 4 4 4 4 4 4 4 4 4 5 5
2 3 4 5 5 5 5 5 6 4 3 2 1 2 3 4 4 5 5 4 5 11 8 7 10 15 17 10 6 6 6 6 5 5 4 4 4 4 4 4 4 5 5 6
2 3 4 4 4 4 5 6 6 4 4 3 2 1 2 2 3 3 2 6 10 12 7 10 15 17 16 7 6 6 6 6 5 4 4 4 3 4 4 4 5 5 6 7
1 2 3 3 3 3 4 5 5 4 4 3 3 2 1 2 2 3 3 5 9 10 6 10 16 17 11 6 7 6 6 5 5 4 4 4 4 4 4 4 5 5 6 6
1 2 2 2 2 3 3 3 3 3 3 3 3 2 1 1 1 2 3 4 7 9 7 6 9 12 7 7 6 6 5 5 5 5 4 4 4 5 4 5 7 6 6 6
2 2 2 2 2 2 3 3 3 4 3 4 4 3 2 2 1 2 3 3 4 5 5 5 6 7 6 6 6 5 5 4 4 4 4 4 4 4 5 6 5 6 6 7
Wind_Direction
97 114 164 199 198 197 207 217 226 239 250 261 278 297 305 312 320 320 344 9 12 11 13 12 11 13 15 16 18 22 31 33 32 31 35 40 45 48 50 54 57 61 66 68
182 200 220 239 223 213 221 229 240 258 272 270 281 281 285 300 305 300 325 9 17 17 18 16 16 16 20 23 25 32 41 41 37 40 45 48 51 55 58 60 63 66 68 72
191 169 234 249 225 209 208 214 221 233 244 265 278 288 300 304 288 272 225 69 33 27 26 21 20 19 26 30 37 45 49 48 45 48 52 52 55 58 60 62 67 71 72 74
181 191 238 222 129 205 217 227 223 239 253 267 282 300 300 284 249 185 161 144 97 52 43 36 35 37 43 47 50 55 56 54 52 55 59 60 61 62 61 61 62 65 67 73
206 242 269 262 197 183 196 234 225 233 252 268 287 281 225 155 149 138 135 127 108 82 66 60 55 57 65 65 62 62 59 56 55 60 65 64 63 62 62 66 66 64 65 72
204 244 251 127 125 170 189 213 174 208 241 266 261 264 133 145 147 141 139 138 129 116 100 85 74 80 82 74 70 64 60 61 61 64 69 69 69 69 71 74 76 76 72 71
221 246 268 237 151 159 207 155 145 209 252 255 244 298 96 144 154 155 151 145 139 126 109 95 95 100 93 83 73 69 73 75 73 74 76 79 79 77 81 84 84 82 80 72
206 226 246 149 163 196 233 62 240 262 263 252 245 167 153 165 166 164 161 156 148 135 122 116 119 117 106 93 90 93 92 87 82 81 81 83 86 84 85 91 91 88 87 79
213 229 9 172 200 218 318 262 271 269 254 235 225 203 183 181 176 173 171 163 158 150 141 136 135 135 126 124 126 120 107 97 91 87 82 85 89 92 90 86 87 87 85 81
241 248 247 246 248 249 246 255 277 271 257 231 232 209 189 182 178 176 176 171 165 163 160 152 147 142 136 139 139 129 115 107 104 100 94 87 84 82 83 82 85 86 80 76
239 251 255 243 214 227 256 269 280 269 245 238 230 211 195 186 183 179 176 174 173 174 168 160 156 150 149 150 149 136 125 119 114 107 106 97 84 72 71 65 41 50 58 35
220 208 211 174 114 90 282 293 295 280 259 236 224 216 198 191 184 180 177 175 175 175 170 164 163 159 158 160 160 148 139 138 133 128 122 118 115 104 75 71 78 66 39 335
235 132 241 286 337 37 314 306 300 278 262 252 230 213 198 190 183 181 180 181 181 178 173 168 167 166 166 167 169 166 155 150 148 151 152 150 155 163 154 110 82 49 22 357
190 212 240 231 267 328 314 308 299 282 263 248 228 206 195 188 184 186 188 185 179 173 172 171 171 171 169 170 170 166 157 154 160 163 168 174 183 200 231 253 256 253 340 330
170 213 268 302 302 303 308 302 288 272 259 241 219 206 196 193 193 193 185 174 170 173 176 176 177 174 170 172 170 165 162 161 165 166 172 179 186 203 226 247 269 280 283 277
196 267 267 272 288 300 300 290 280 276 264 245 228 217 209 204 197 186 178 174 176 183 183 183 184 174 170 171 167 165 169 170 168 171 177 185 197 213 231 250 264 274 282 295
201 228 249 277 290 296 294 288 281 279 271 253 238 219 202 193 189 187 184 185 188 186 183 185 181 168 171 174 171 168 165 170 177 180 189 197 208 224 240 257 271 282 287 295
244 278 283 286 290 294 295 293 286 279 269 260 236 205 197 196 197 193 184 177 176 181 188 185 173 167 172 175 174 168 168 170 177 186 191 200 213 227 244 261 275 281 288 291
271 292 295 291 292 291 291 294 292 284 273 249 215 208 206 205 199 186 174 177 185 193 193 180 174 172 174 178 171 169 170 172 178 188 196 208 214 228 247 261 271 279 284 287
25 347 329 321 317 307 302 303 302 294 279 233 209 205 204 200 187 178 180 192 198 187 167 172 175 177 177 177 172 171 174 179 184 189 196 211 224 238 250 261 270 276 279 281
16 356 347 339 332 330 329 326 322 320 315 232 209 209 204 189 180 178 185 200 190 166 168 175 176 178 176 174 174 173 177 182 188 193 200 212 226 240 250 259 266 270 275 279
4 353 348 343 340 341 344 345 344 341 344 324 241 201 185 182 183 190 203 203 173 176 176 179 180 182 178 174 174 176 181 186 190 194 202 213 225 239 250 259 264 268 271 274
357 347 344 344 339 334 345 357 356 352 346 328 279 220 205 198 189 194 207 194 175 185 182 185 186 184 180 173 175 179 183 187 192 198 206 214 225 238 251 258 262 267 272 275
347 346 342 338 339 350 356 352 348 346 343 335 318 264 215 202 207 210 206 185 189 189 188 190 189 187 179 176 178 181 186 190 194 199 206 215 224 235 245 255 262 267 269 274
327 327 336 343 352 350 339 334 337 347 352 348 345 334 275 232 224 205 192 194 196 191 187 193 192 189 180 177 183 184 187 192 192 194 204 215 225 235 245 252 258 266 269 271
278 304 317 322 324 326 326 329 331 333 335 333 330 324 315 294 238 201 194 197 200 193 185 186 189 188 181 183 186 186 187 192 201 205 209 218 232 241 248 254 262 263 268 272
249 270 286 297 314 328 325 321 320 322 323 319 313 309 304 287 249 218 206 199 196 187 182 186 186 179 177 181 183 184 185 187 193 202 210 220 231 240 249 255 261 266 270 272